Regional Weather Roundup
Issued by NWS

Home | Current Version | Previous Version | Text Only | Print | Product List | Glossary Off
Versions: 1 2 3 4 5 6 7 8 9 10 11 12 13 14 15 16 17 18 19 20 21 22 23 24 25 26 27 28 29 30 31 32 33 34 35 36 37 38 39 40 41 42 43 44 45 46 47 48 49 50

000
ASUS43 KBIS 191510
RWRND

NORTH DAKOTA REGIONAL WEATHER ROUNDUP
NATIONAL WEATHER SERVICE BISMARCK ND
900 AM CST FRI DEC 19 2014

NOTE: "FAIR" INDICATES FEW OR NO CLOUDS BELOW 12,000 FEET WITH NO
SIGNIFICANT WEATHER AND/OR OBSTRUCTIONS TO VISIBILITY.


NDZ001>003-009>011-017-191600-
NORTHWEST NORTH DAKOTA

CITY           SKY/WX    TMP DP  RH WIND       PRES   REMARKS
WILLISTON      FOG       20  19  96 CALM      29.94R VSB 1/4
MINOT          CLOUDY    28  26  92 CALM      29.93R FOG
MINOT AFB      FRZ DRZL  26  26 100 NE2       29.93S FOG
$$

NDZ018>021-031>035-040>046-191600-
SOUTHWEST NORTH DAKOTA

CITY           SKY/WX    TMP DP  RH WIND       PRES   REMARKS
BISMARCK       MOCLDY    22  21  96 SE5       29.96S WCI  16
DICKINSON      MOCLDY    30  23  75 W8        29.90S
GARRISON         N/A     19  17  92 N5        29.93R WCI  12
HETTINGER ARPT PTCLDY    24  20  84 W7        29.94S WCI  16
$$

NDZ004>008-012>016-024-026-027-054-191600-
NORTHEAST NORTH DAKOTA

CITY           SKY/WX    TMP DP  RH WIND       PRES   REMARKS
GRAND FORKS    CLOUDY    24  23  96 S9        30.07S FOG     WCI  14
GRND FRKS AFB  CLOUDY    24  24 100 S9        30.06S FOG     WCI  14
DEVILS LAKE    CLOUDY    27  19  74 S7        29.96S VSB 3/4 WCI  19
$$

NDZ022-023-025-028>030-036>039-047>053-191600-
SOUTHEAST NORTH DAKOTA

CITY           SKY/WX    TMP DP  RH WIND       PRES   REMARKS
FARGO          CLOUDY    26  23  88 S14       30.08F FOG     WCI  14
JAMESTOWN      CLOUDY    25  24  96 S12       29.99S FOG     WCI  14
$$



USA.gov is the U.S. government's official web portal to all federal, state and local government web resources and services.